GFSSW_850_spd_000.txt.gz
Wind_Speed
20 23 25 27 29 31 30 30 28 26 26 26 27 26 25 27 27 26 30 25 17 12 17 14 11 20 16 14 13 9 2 6 7 7 8 3 3 5 3 9 8 13 25 26 28
20 20 21 24 25 28 30 31 31 30 29 27 27 27 26 27 30 36 33 28 20 21 24 21 22 21 15 14 11 9 6 11 11 9 6 7 2 17 8 18 15 21 27 28 29
17 18 17 17 21 23 26 28 29 30 30 30 28 28 26 24 28 34 30 21 22 25 26 22 13 24 15 11 16 9 14 19 19 24 8 7 15 14 11 15 27 21 35 37 32
19 19 19 19 19 20 21 23 25 27 28 28 29 29 28 17 8 1 14 11 13 22 25 25 20 17 8 11 20 4 18 28 27 24 14 7 15 21 22 28 38 36 40 41 31
20 20 20 21 21 21 20 19 20 22 24 25 24 24 25 16 24 5 16 6 6 4 20 30 29 22 9 9 17 9 10 19 24 25 29 23 17 22 29 44 40 37 39 38 34
20 20 21 21 22 22 20 21 20 21 21 21 19 16 18 19 30 29 36 29 24 21 12 24 19 27 11 10 9 8 22 25 21 32 32 19 19 21 40 37 35 34 38 40 37
22 22 23 23 23 24 23 22 21 21 21 20 18 17 25 43 24 19 18 36 34 27 24 20 21 19 11 3 12 12 7 8 14 23 9 21 14 21 47 30 30 35 40 41 38
21 22 23 24 24 25 24 25 24 24 24 21 15 12 19 23 28 32 34 20 23 25 23 22 17 25 5 4 1 2 2 3 7 5 8 12 14 23 35 27 35 33 30 34 35
23 25 25 24 24 25 26 27 25 25 22 20 13 11 18 15 25 31 34 40 33 21 16 12 23 17 5 8 7 3 9 10 8 8 4 8 12 15 23 11 23 32 33 31 33
21 23 25 26 27 25 25 26 22 13 10 1 7 7 17 13 15 17 15 27 30 23 22 15 12 6 5 7 16 5 5 6 10 2 4 10 15 18 39 16 23 27 35 37 39
22 23 23 23 25 26 24 24 8 3 5 7 8 21 26 15 16 12 11 14 24 14 10 12 8 20 22 13 6 7 14 13 3 4 7 10 10 14 23 13 18 29 34 41 42
24 24 24 23 23 24 20 5 5 8 12 24 31 35 39 41 20 24 10 13 14 18 13 6 27 20 11 14 14 9 12 17 12 4 7 10 13 15 17 18 20 28 37 36 30
25 24 23 24 24 18 10 7 5 19 6 18 29 18 26 28 26 44 15 14 6 14 24 26 19 12 15 9 13 13 18 17 11 6 6 7 13 12 14 14 19 25 22 23 24
24 22 23 24 15 12 13 0 9 12 4 8 4 7 8 10 10 40 27 14 8 19 18 17 24 18 10 18 15 18 15 15 12 4 8 5 6 9 9 17 8 21 23 25 21
22 23 22 18 21 14 10 9 8 2 5 3 3 2 16 10 12 15 46 23 10 10 10 13 18 20 23 24 20 13 7 7 7 7 2 5 5 6 5 10 14 11 26 29 24
23 24 22 18 17 8 6 7 2 2 7 5 5 11 12 9 17 13 15 31 12 6 9 15 11 19 12 9 13 4 3 4 4 1 10 13 7 5 6 12 6 6 14 17 14
26 22 19 17 15 13 9 2 2 4 6 2 7 14 20 12 7 6 11 17 12 13 13 5 9 3 7 13 5 7 7 2 4 1 6 6 6 15 11 10 9 12 21 12 10
26 21 13 8 9 6 2 2 5 3 6 12 14 15 10 14 9 20 7 14 22 2 11 9 6 15 7 10 13 15 9 6 6 3 5 5 8 9 13 15 21 23 18 10 17
28 19 6 13 7 5 3 2 4 2 4 10 12 8 7 12 5 12 7 3 8 22 5 10 8 4 15 7 18 11 10 12 1 2 1 4 8 8 6 9 5 1 6 15 20
29 12 14 9 2 6 2 3 3 5 9 7 5 5 7 11 8 12 6 12 11 8 15 3 3 7 14 9 19 9 11 7 6 6 3 5 5 6 2 6 3 6 10 19 21
13 5 10 10 3 3 1 3 4 11 9 3 3 4 8 12 6 3 8 8 22 23 10 1 4 3 10 16 17 5 7 3 8 5 5 1 6 8 9 9 9 9 17 24 27
12 3 7 8 4 2 3 3 8 8 10 6 5 9 8 9 4 1 5 9 29 19 11 3 1 4 12 8 21 22 16 8 7 4 4 3 6 3 9 7 7 8 15 19 23
12 6 5 6 2 2 5 4 4 5 5 4 5 3 7 7 6 5 3 5 14 15 14 7 4 2 5 2 2 22 17 16 5 3 14 8 6 3 5 6 7 11 18 19 23
7 4 4 4 3 3 6 6 4 9 8 5 4 7 5 6 7 4 7 2 9 16 17 9 3 5 9 5 6 5 15 19 11 4 3 10 2 5 4 7 5 13 19 22 24
8 3 3 4 4 8 5 3 5 4 5 10 3 4 4 4 6 1 5 3 5 10 11 2 3 5 10 12 3 6 12 19 17 23 12 4 8 6 8 8 6 18 21 24 25
8 4 5 9 11 7 4 3 4 5 4 5 3 11 7 5 6 7 8 4 1 3 5 3 4 6 4 8 14 10 7 16 22 20 16 4 10 9 1 8 9 22 25 26 29
9 10 7 6 4 2 2 4 9 12 11 10 10 13 10 11 6 15 13 11 5 3 4 4 4 6 4 7 4 7 15 8 9 13 18 12 24 4 4 7 11 23 28 30 32

GFSSW_850_spd_003.txt.gz
Wind_Speed
17 18 20 21 23 24 25 25 25 25 25 26 28 28 27 28 28 27 29 26 18 9 17 12 23 18 18 13 14 7 7 13 16 12 10 2 4 3 3 11 8 8 18 21 24
15 15 15 17 19 22 24 24 25 24 24 24 26 26 27 28 28 31 31 30 24 23 20 21 17 20 13 12 10 10 12 20 16 15 13 12 6 12 10 21 25 23 21 20 23
15 15 15 14 13 14 17 20 22 23 25 25 25 25 25 22 24 17 23 25 26 30 28 24 17 25 15 8 15 12 20 26 25 24 12 21 21 18 20 24 29 24 28 30 25
17 18 18 18 17 16 15 16 18 20 21 23 24 23 23 14 9 7 9 13 12 30 32 21 18 19 13 17 22 15 28 31 32 22 16 22 24 22 28 37 31 33 29 31 33
18 18 18 19 19 18 17 17 17 18 20 19 19 19 18 12 18 10 12 7 5 2 22 23 26 25 15 17 22 23 23 26 30 28 26 25 25 22 36 42 33 31 30 32 35
20 20 20 20 19 20 20 19 19 18 19 20 20 15 14 16 21 28 31 20 19 13 9 22 13 20 13 13 22 14 29 29 24 20 28 23 31 24 35 33 28 27 31 32 33
21 21 22 22 22 23 22 21 21 20 19 21 22 18 20 34 20 14 18 33 31 21 18 15 26 11 8 9 21 18 15 13 16 17 14 11 26 20 41 28 28 33 28 32 32
21 22 24 24 24 24 24 24 23 22 22 21 19 12 14 18 20 26 29 27 20 23 20 19 16 24 13 6 1 10 11 18 12 20 14 15 32 20 25 18 22 24 22 27 36
20 22 23 25 25 26 25 25 24 20 17 16 12 9 15 10 18 15 20 30 30 26 18 9 17 16 12 15 9 11 14 15 13 11 5 16 21 17 15 11 20 28 27 28 31
22 23 22 22 22 25 27 25 15 8 7 5 4 6 13 6 12 16 13 11 22 16 19 15 12 12 14 17 21 15 15 14 16 11 17 23 26 19 24 18 24 26 27 28 33
23 24 24 24 23 23 25 17 5 2 4 8 10 14 26 26 24 22 4 10 14 23 16 26 13 25 31 22 18 18 20 25 22 15 15 19 19 14 19 23 26 28 30 34 37
24 24 23 23 23 23 10 5 2 6 13 22 32 31 36 31 18 24 19 9 12 21 22 13 30 26 20 21 23 22 23 21 14 12 10 17 20 16 17 24 29 26 29 31 27
25 22 23 25 23 10 12 3 3 10 6 21 15 13 13 10 16 33 13 11 13 20 30 30 35 18 22 22 23 25 25 23 19 15 14 17 22 19 20 13 21 24 28 31 30
23 22 25 25 15 10 5 2 7 11 4 6 3 3 4 4 7 20 23 19 13 23 24 23 24 25 26 28 22 25 24 20 18 11 14 3 14 17 19 22 22 28 24 25 25
23 23 23 19 20 10 6 5 6 2 5 2 3 1 14 5 14 7 15 24 19 13 20 20 24 20 25 28 27 16 11 15 16 17 16 17 11 12 14 22 24 20 26 21 14
26 24 21 18 15 8 3 7 1 3 8 3 2 8 17 6 11 12 7 24 24 22 22 21 16 27 25 20 21 12 7 8 6 7 12 15 11 14 14 20 18 14 16 7 13
26 25 19 12 10 9 5 0 3 5 6 0 5 12 16 11 8 10 14 12 16 18 20 19 18 8 17 18 17 20 12 5 6 8 10 16 13 18 14 19 18 19 13 8 10
30 23 4 11 10 5 3 2 6 4 8 12 12 16 15 10 6 11 18 12 20 18 11 15 14 21 20 20 14 24 20 8 7 5 10 5 9 7 16 20 29 23 16 7 6
32 7 8 11 9 3 4 3 3 4 5 10 15 9 6 8 7 8 8 11 10 24 7 15 15 16 19 15 21 17 18 15 6 2 7 3 6 11 18 14 11 11 8 7 11
22 3 12 13 6 5 2 3 4 7 11 7 7 7 11 10 9 6 4 11 13 11 11 7 12 13 22 22 23 19 17 10 9 8 8 8 8 8 14 8 8 8 8 11 15
15 3 9 13 11 3 2 4 5 12 11 4 6 9 10 11 6 2 4 6 14 15 12 11 7 15 18 24 24 11 16 7 10 7 6 4 5 11 16 12 8 3 9 12 16
10 2 9 12 2 1 4 9 9 9 11 7 7 9 10 11 7 3 4 2 8 11 8 5 6 9 27 15 20 21 20 20 9 9 10 3 6 2 8 7 6 2 10 16 16
11 5 7 10 4 6 8 6 6 7 8 5 6 5 12 8 5 3 4 5 4 4 3 7 7 11 9 6 17 25 20 17 4 5 16 9 5 4 3 3 0 5 16 18 20
7 4 5 5 3 5 7 5 7 10 9 6 10 9 12 6 4 5 6 2 4 5 18 6 4 8 12 14 7 25 23 19 14 9 8 17 12 20 16 7 5 7 14 21 22
9 2 3 4 4 9 6 6 9 7 6 9 2 4 8 6 11 4 3 1 2 7 13 3 3 6 14 8 4 21 22 24 20 16 8 6 20 20 13 8 3 11 15 20 23
6 4 5 10 10 9 4 4 9 8 5 10 6 13 13 11 13 14 5 4 3 4 8 5 1 5 11 11 7 7 8 21 25 22 18 14 18 13 13 3 5 15 18 21 24
8 10 7 6 4 4 3 5 7 14 9 10 13 16 15 13 9 14 16 16 13 5 5 6 6 4 8 4 6 6 2 7 15 20 21 20 24 13 14 11 6 17 24 24 26

GFSSW_850_spd_006.txt.gz
Wind_Speed
11 13 15 17 18 19 20 21 21 22 22 25 27 28 27 27 28 26 28 25 14 10 7 9 11 13 14 18 18 16 11 15 20 20 17 14 11 3 5 13 16 13 17 17 17
13 13 13 12 14 16 17 18 19 19 20 22 22 25 26 25 25 31 29 29 25 23 21 16 18 18 20 20 17 20 15 24 21 22 19 25 16 17 12 18 24 24 23 15 17
16 15 14 14 14 14 16 18 19 19 20 20 20 22 22 19 18 18 21 26 28 28 27 22 19 19 24 27 27 24 27 24 27 31 28 24 26 27 22 19 27 24 28 25 24
15 16 16 16 16 15 15 16 18 18 18 18 18 18 18 10 9 6 16 17 18 30 32 27 25 25 21 26 30 29 35 31 32 35 29 22 31 28 28 28 31 28 29 30 27
16 17 17 17 18 18 17 16 17 18 18 18 17 16 13 11 21 10 12 13 4 3 25 33 31 29 27 26 31 34 28 32 30 30 32 30 31 30 35 30 35 29 27 26 25
16 17 17 18 18 19 19 19 19 19 18 20 20 18 11 19 14 20 26 18 12 8 11 27 20 30 29 32 28 32 32 37 34 30 28 25 30 34 37 25 37 30 31 27 26
17 18 20 21 21 19 19 20 20 19 19 19 20 17 18 28 19 19 18 28 21 12 15 16 28 17 23 21 32 30 27 28 24 28 27 25 31 30 37 29 33 29 26 24 23
17 18 20 22 22 22 21 21 20 20 19 18 17 11 14 17 19 23 20 28 21 25 18 16 17 28 26 18 19 22 27 27 25 21 20 19 36 27 25 28 25 22 23 23 24
16 18 19 20 21 23 24 23 20 17 14 13 7 9 14 9 12 16 12 19 20 20 20 17 20 26 21 23 19 25 26 31 30 27 26 26 39 29 34 21 20 21 25 25 26
22 22 22 21 21 22 23 20 14 8 5 2 6 7 13 13 6 6 11 12 14 17 18 25 18 16 21 21 27 26 26 27 30 23 22 26 31 27 31 31 27 29 27 29 27
24 24 22 22 23 23 22 14 6 6 7 14 10 17 24 19 17 20 11 6 12 18 26 29 20 27 42 30 27 25 25 30 24 24 24 24 29 29 32 24 28 32 28 30 29
23 23 23 24 24 22 9 9 6 6 14 19 27 27 30 27 24 23 15 12 16 21 24 22 30 45 28 28 26 27 29 29 24 24 20 20 26 26 24 26 32 35 31 32 27
23 23 24 25 25 11 10 8 4 9 9 20 13 13 5 5 14 20 21 23 21 21 30 35 47 26 30 28 30 29 29 26 25 22 19 22 25 27 27 35 37 32 29 26 26
23 24 24 25 9 10 10 2 6 8 6 10 6 6 4 3 6 14 11 26 20 27 24 33 34 28 32 33 30 30 25 23 22 19 19 18 21 23 21 25 22 29 30 31 29
24 25 24 20 15 8 7 6 6 4 6 6 7 3 6 6 9 3 5 16 26 23 16 36 26 34 31 39 28 26 15 20 20 19 20 23 14 22 23 24 23 22 29 29 25
27 27 26 10 8 7 7 7 4 6 8 1 2 3 9 10 7 7 7 13 16 27 26 29 22 26 38 22 27 22 14 18 15 14 16 21 20 21 19 22 21 14 13 11 11
31 28 14 3 5 7 5 4 6 7 5 1 6 11 16 16 9 7 10 8 12 15 26 24 28 24 22 30 24 24 21 10 11 12 14 15 12 20 17 20 20 15 5 6 4
31 12 6 5 8 7 2 5 5 5 7 15 12 17 20 16 5 7 13 12 17 22 19 22 20 32 25 29 23 29 25 12 15 12 13 7 9 10 11 16 15 14 15 5 5
22 3 6 9 9 3 4 5 5 10 8 11 16 16 11 3 6 5 5 7 11 15 20 18 28 30 22 26 28 31 25 23 14 3 6 7 9 14 20 18 15 9 6 6 11
13 2 5 9 10 1 2 5 6 9 12 13 15 7 12 12 10 3 6 5 11 16 14 10 16 25 31 26 29 26 24 20 13 14 15 7 10 10 13 10 7 10 7 12 17
9 4 5 12 1 1 4 6 11 10 13 8 13 14 14 11 7 4 4 2 4 14 11 13 9 21 27 25 27 17 22 19 15 10 8 4 4 11 14 11 3 5 10 18 22
9 2 8 9 4 4 5 12 13 11 13 10 8 9 8 10 14 7 6 6 3 9 8 8 5 13 26 25 24 26 18 24 13 16 13 7 7 5 5 6 4 4 13 20 23
11 4 7 8 4 6 9 17 14 13 14 9 11 7 14 14 7 6 7 6 4 5 4 4 10 10 18 22 22 28 24 22 16 10 16 13 4 5 5 8 6 6 17 23 25
8 4 3 4 5 7 12 9 12 13 12 10 14 7 11 14 3 7 9 5 8 6 15 14 10 15 8 24 18 25 26 26 21 12 14 16 10 11 8 6 9 6 17 22 25
8 5 5 5 7 12 10 9 12 9 6 14 8 7 13 12 16 2 7 6 8 9 7 4 16 19 15 6 8 25 26 23 24 21 16 12 19 18 6 6 11 3 16 20 23
6 5 8 16 11 11 8 8 13 14 7 11 11 16 16 15 14 16 13 6 4 6 8 7 12 16 15 12 7 14 26 24 25 23 16 11 13 7 2 5 6 1 15 20 22
5 5 6 9 7 7 7 13 10 15 8 11 13 14 15 11 15 18 18 17 14 16 8 6 6 13 16 12 6 11 21 22 22 21 18 18 17 12 9 10 12 11 11 16 22

GFSSW_850_spd_009.txt.gz
Wind_Speed
12 14 15 16 16 16 17 19 19 20 20 21 23 25 25 26 27 20 23 18 16 16 15 9 13 18 17 22 27 20 16 18 24 22 19 24 15 19 5 12 18 18 18 19 21
14 14 14 15 17 18 19 19 20 20 19 18 20 22 23 24 25 26 26 26 25 22 19 18 20 20 25 24 28 25 18 25 23 20 19 24 25 23 20 15 20 21 24 23 16
15 14 15 15 15 16 18 19 20 19 20 20 18 19 19 18 20 21 23 26 33 31 29 23 24 23 28 30 29 30 25 25 27 30 32 29 32 33 24 21 28 22 23 24 24
17 17 16 16 16 17 17 18 20 21 20 19 19 17 15 9 9 1 7 18 16 19 27 29 31 33 29 27 32 29 37 35 35 38 37 32 41 34 31 27 30 26 26 26 27
18 18 18 19 19 18 19 18 19 20 21 21 21 20 16 12 22 19 21 11 11 9 21 32 38 38 33 31 33 32 32 39 41 42 44 41 33 37 33 31 34 34 29 28 29
17 18 18 20 20 20 20 20 20 19 18 19 21 21 13 24 12 15 16 17 13 12 16 26 37 40 40 37 34 40 40 40 43 43 41 37 37 36 35 35 38 37 31 34 33
18 19 20 21 21 21 20 19 19 20 19 20 20 18 21 27 18 18 18 19 20 20 19 21 27 32 35 33 41 43 36 35 36 38 34 30 32 36 40 37 38 39 35 35 31
16 17 19 21 22 23 23 22 20 20 20 19 19 13 23 17 22 25 23 23 23 24 24 19 17 31 36 30 32 32 31 29 34 34 36 31 35 31 38 38 38 35 30 36 26
20 21 22 21 19 18 19 20 21 20 15 14 10 11 22 7 14 13 20 21 20 24 26 24 18 23 24 23 22 26 28 38 32 30 28 30 37 31 36 35 36 40 42 26 30
22 23 23 23 24 25 26 19 14 11 6 3 9 10 17 15 8 5 5 11 17 20 24 31 19 18 20 21 27 31 32 30 33 30 28 32 35 33 38 27 33 37 39 35 31
23 24 25 26 26 26 25 19 4 9 13 15 15 15 25 16 16 19 14 14 14 18 24 30 18 27 45 33 30 30 26 31 32 28 27 29 30 31 20 29 33 37 41 34 33
23 24 25 26 27 21 11 12 11 10 15 26 30 32 30 26 27 26 22 22 20 20 22 25 33 46 25 31 31 31 31 32 29 27 21 22 23 26 25 25 32 36 36 35 36
25 25 26 27 20 10 14 12 8 11 12 30 30 27 24 17 23 23 23 26 24 22 25 30 44 25 33 30 31 32 31 29 29 24 20 19 27 28 25 31 35 39 41 41 39
26 27 26 27 11 15 9 10 10 12 7 20 10 6 10 8 13 12 16 20 25 29 25 28 33 34 32 36 34 31 29 27 23 20 18 20 22 23 21 23 25 28 31 30 29
29 28 27 17 12 10 11 11 9 5 6 5 9 8 5 9 10 5 8 14 19 23 19 34 29 36 36 40 30 35 25 24 23 21 22 23 16 18 21 22 25 24 29 29 28
31 26 18 8 4 8 11 9 7 5 8 2 5 4 9 11 14 12 10 13 13 18 28 32 35 27 39 34 30 27 27 24 18 17 19 21 19 24 19 20 18 13 16 22 23
31 15 12 6 8 12 10 8 5 7 3 5 10 13 12 16 15 17 13 11 14 14 21 29 30 29 30 32 36 29 22 15 16 17 20 18 17 21 18 17 18 16 19 3 4
22 10 8 6 11 11 7 3 7 13 13 16 16 15 17 18 19 15 12 14 20 20 20 22 26 33 27 33 37 30 29 15 26 11 16 23 16 16 14 9 11 16 13 13 8
13 5 2 9 9 5 3 5 6 16 17 13 17 16 19 8 10 10 15 16 4 8 6 19 28 27 35 25 26 38 28 32 21 22 11 14 10 14 17 14 13 13 11 10 12
11 6 3 9 10 3 4 7 10 8 11 15 18 13 14 17 12 11 11 2 8 7 12 16 24 26 27 26 32 35 27 25 21 23 14 14 9 10 5 9 7 13 11 15 17
10 4 2 6 6 7 5 8 14 16 15 10 19 18 17 11 13 13 4 5 6 13 11 21 11 17 28 32 32 28 25 29 21 17 14 12 10 3 6 10 7 13 13 18 22
7 4 5 7 4 4 6 15 19 17 16 14 14 16 15 15 15 19 11 4 1 10 11 16 5 10 19 30 31 31 28 32 15 22 17 9 6 6 5 3 4 3 15 20 23
11 5 1 5 5 7 15 17 13 12 13 14 7 16 16 14 8 8 12 13 12 5 5 8 8 9 12 18 27 33 31 26 28 15 20 10 2 10 7 8 1 5 18 21 24
9 4 2 4 7 9 14 15 14 15 15 11 18 11 13 17 2 4 7 5 11 8 14 12 10 14 6 14 23 30 36 31 29 16 17 18 11 10 9 10 9 9 17 22 24
5 6 5 6 9 13 15 14 15 12 10 20 11 7 12 17 17 3 5 15 8 13 5 5 17 21 12 23 25 24 27 25 30 21 18 16 15 13 13 11 5 11 19 21 23
7 7 12 20 11 13 10 11 15 19 11 12 12 17 15 15 15 17 13 13 7 5 3 9 20 20 15 22 25 30 30 28 24 25 16 9 15 11 1 11 15 8 17 19 22
6 7 6 12 7 7 10 14 19 20 10 14 15 16 16 15 22 26 22 21 17 15 14 6 9 8 15 20 18 17 30 26 25 25 20 12 8 7 12 13 9 9 8 15 17

GFSSW_850_spd_015.txt.gz
Wind_Speed
15 16 17 18 19 19 19 19 18 17 17 17 16 17 19 24 26 26 31 30 22 18 21 14 10 14 17 17 18 13 4 5 12 13 16 26 18 30 26 5 11 17 13 24 24
16 17 17 18 19 20 21 20 20 20 19 18 17 16 16 20 25 33 31 32 28 22 19 22 22 20 26 21 18 15 6 11 17 18 15 21 17 29 24 11 13 24 22 34 29
16 16 17 18 19 21 21 21 22 20 20 20 18 17 15 17 23 21 14 19 25 26 27 21 20 23 28 29 24 21 20 15 22 26 30 26 30 30 23 9 17 20 14 23 23
17 18 18 19 19 20 20 21 22 22 22 21 20 18 15 12 6 6 2 10 12 19 26 25 22 15 4 17 28 17 27 29 24 31 34 25 34 27 28 23 31 31 37 31 24
19 19 20 20 20 20 19 20 20 20 21 22 21 19 19 12 24 11 15 10 8 9 28 24 21 16 10 6 18 25 22 28 31 33 37 39 31 29 34 37 37 34 33 37 31
21 21 23 24 25 24 23 21 19 19 20 21 22 22 17 18 18 13 14 20 20 12 13 17 15 22 18 15 19 24 24 29 30 34 36 28 29 31 33 35 36 38 38 42 36
18 18 19 19 20 23 24 25 24 21 20 20 21 20 20 33 23 17 20 17 13 18 18 22 24 26 16 11 31 30 22 20 25 29 22 26 27 31 33 32 35 30 34 38 36
23 24 24 24 24 23 24 23 22 22 23 17 17 14 13 24 15 17 27 22 19 18 19 18 20 21 15 14 19 17 18 21 22 22 28 20 42 15 32 38 35 43 43 40 39
24 25 26 26 25 27 28 23 19 13 19 17 16 10 13 9 15 5 10 20 17 21 21 18 20 23 17 6 7 9 18 22 26 22 16 11 32 15 36 38 33 33 41 45 45
26 27 27 26 23 23 19 20 19 16 12 8 10 9 16 10 8 9 2 5 6 13 18 15 12 11 11 12 17 13 18 22 27 9 12 22 32 28 43 41 38 39 39 39 39
27 31 32 28 23 15 21 25 28 9 5 18 26 17 37 18 23 6 9 10 10 9 6 15 9 22 33 22 16 15 19 21 16 16 17 25 26 26 29 31 24 28 32 19 20
29 30 30 25 21 9 15 17 21 22 23 39 35 42 41 40 33 31 21 22 9 7 8 10 23 22 17 15 19 22 25 24 14 10 14 16 14 19 17 13 18 21 24 23 27
27 29 26 20 14 11 17 20 21 27 15 39 31 37 42 32 32 32 28 26 13 12 12 16 12 16 21 20 22 25 24 18 18 14 22 18 18 19 19 19 22 28 31 33 41
25 27 21 19 11 14 18 23 23 21 4 14 22 9 4 33 25 34 35 28 16 17 15 16 18 20 18 25 19 23 14 20 20 15 14 11 17 19 11 16 19 22 30 33 42
24 23 16 13 15 13 23 31 19 9 4 15 14 17 21 2 9 18 19 22 16 16 11 22 12 11 20 17 18 24 11 19 16 15 16 18 9 7 9 9 10 13 27 35 38
22 18 14 12 14 19 26 19 13 2 3 10 11 9 11 4 14 14 6 16 20 14 13 16 18 18 17 15 18 17 16 19 16 11 12 17 15 20 12 6 13 10 25 32 10
21 11 10 10 12 17 19 18 2 2 6 8 15 18 15 16 15 10 8 10 5 6 10 11 14 17 18 18 18 15 13 7 9 9 16 13 12 17 11 13 18 12 17 5 8
19 9 8 9 8 16 16 4 2 10 16 19 17 13 10 11 14 18 17 7 8 16 10 11 9 9 10 19 10 13 13 8 13 8 17 13 8 9 22 15 21 27 14 23 25
16 4 8 5 10 9 11 2 2 7 18 21 19 7 8 14 3 9 13 12 9 4 2 3 7 11 18 15 14 19 18 18 15 11 8 5 10 22 26 19 11 18 16 28 31
21 12 6 9 12 10 2 4 10 15 16 15 19 5 13 12 11 2 5 13 13 17 14 3 8 10 16 15 14 18 8 6 11 12 12 6 13 9 10 18 10 9 13 29 33
11 5 4 5 5 4 1 4 21 4 24 6 14 12 13 6 9 13 5 6 7 9 11 13 4 13 10 3 11 9 16 11 6 9 9 7 9 12 8 9 10 10 27 32 35
7 3 2 5 4 3 3 15 22 14 23 13 12 6 12 16 8 7 6 7 3 2 1 4 4 6 11 13 17 17 20 15 8 18 5 5 9 11 5 7 7 15 24 32 37
17 9 9 4 1 2 11 13 18 19 11 11 13 15 13 11 7 3 3 5 11 5 0 3 3 5 6 7 12 9 14 17 6 7 20 11 11 4 4 8 21 19 27 31 35
8 4 9 16 16 10 11 10 15 15 12 19 13 7 4 10 13 10 5 6 12 5 3 5 4 5 8 8 9 10 20 13 16 10 13 13 20 13 6 8 15 22 31 33 34
4 6 9 4 11 13 15 15 17 16 16 16 7 11 13 10 16 8 11 8 6 10 5 5 4 10 16 20 11 16 19 20 17 14 17 16 8 9 7 9 16 28 31 31 31
8 7 8 15 18 15 8 7 16 17 13 11 10 17 17 7 10 15 14 9 9 4 9 6 4 9 16 16 2 19 22 20 21 23 14 21 17 4 14 20 17 28 28 29 31
10 12 13 8 9 8 7 17 18 17 8 26 8 12 14 16 24 23 26 20 16 14 9 8 3 4 5 7 3 9 19 17 14 19 19 16 10 7 19 11 11 19 28 31 33

GFSSW_850_spd_021.txt.gz
Wind_Speed
15 15 16 17 17 17 17 18 18 18 18 19 19 21 23 25 26 28 32 30 23 19 23 18 14 10 14 12 12 9 2 5 5 6 3 6 7 33 19 23 20 19 17 10 3
15 15 15 16 17 18 18 18 19 19 19 18 19 21 24 26 29 33 28 30 24 21 22 23 29 15 8 10 9 6 5 10 7 6 2 6 5 24 23 28 23 20 21 12 13
15 15 15 15 16 17 18 19 19 19 20 21 21 22 23 24 28 7 6 11 8 15 30 25 22 26 15 12 10 7 12 8 7 15 17 5 15 13 8 12 31 20 22 26 28
17 17 17 18 18 19 19 20 21 23 23 23 23 24 24 21 7 5 4 3 5 7 23 33 22 14 8 11 17 6 11 19 17 19 16 13 18 20 24 30 33 31 33 31 34
19 19 20 21 21 21 22 21 22 23 24 24 22 23 23 9 21 14 20 24 18 15 11 24 26 17 8 6 11 15 13 16 20 24 24 23 24 27 31 30 33 34 36 37 33
18 18 18 19 19 20 20 22 22 21 22 23 23 20 14 8 22 17 22 20 20 19 11 22 12 21 6 7 13 2 3 18 21 23 21 14 24 27 34 36 32 33 30 30 35
19 21 22 22 22 19 18 16 15 18 19 21 20 16 10 30 28 26 30 29 23 18 18 5 27 14 7 2 16 17 12 12 15 4 6 10 24 29 27 32 35 36 38 37 38
23 22 22 23 20 17 14 14 16 17 18 18 17 10 11 36 23 21 15 16 22 23 20 15 9 10 6 6 5 2 4 13 14 14 9 8 36 14 9 19 30 33 34 34 41
22 22 23 23 21 19 12 14 15 12 11 23 18 11 16 20 16 16 22 24 19 19 17 13 9 8 4 4 3 5 7 9 2 7 9 19 39 16 26 25 30 30 35 43 43
24 24 23 20 17 15 11 14 17 11 12 19 6 8 9 26 36 38 29 23 13 14 17 16 10 4 3 5 16 10 13 1 3 4 11 17 29 18 19 20 20 28 36 38 40
26 24 22 15 12 11 13 16 21 6 21 17 23 21 37 35 34 27 22 18 18 9 7 8 5 15 16 11 8 10 4 1 2 5 8 17 22 19 14 25 28 37 38 39 37
26 25 23 13 8 9 12 13 19 15 11 15 10 11 18 26 21 24 15 5 7 4 1 1 17 5 2 3 8 8 9 11 6 11 6 13 13 15 14 17 24 29 31 32 41
24 24 24 15 5 11 14 13 18 16 4 12 11 13 18 17 8 23 4 4 3 8 6 6 4 3 12 6 6 6 6 5 7 11 19 16 21 17 20 19 29 32 33 33 36
24 22 19 15 5 16 13 17 20 12 2 5 10 8 17 19 4 22 14 8 3 7 6 6 7 6 4 6 11 17 5 7 4 4 8 2 18 25 18 23 16 23 24 29 39
23 19 13 14 14 15 18 20 18 1 3 14 6 16 30 8 15 10 11 7 13 10 2 7 2 5 12 10 7 6 11 8 13 11 4 7 5 15 7 13 22 20 29 40 45
22 16 12 9 14 17 21 24 3 5 4 8 13 18 16 10 5 8 8 15 11 13 9 7 15 4 6 7 8 5 3 10 9 3 7 12 10 25 10 12 10 10 22 29 27
23 14 7 6 13 18 21 12 4 5 6 8 10 16 15 11 7 8 8 5 3 5 3 4 14 20 12 6 4 4 5 1 2 4 11 7 14 21 4 5 6 7 18 26 26
21 10 3 6 11 17 20 5 6 2 6 12 12 16 4 13 6 8 6 6 8 1 2 1 5 8 3 7 6 7 8 4 6 5 5 10 11 8 9 12 24 25 30 27 28
17 8 5 5 8 15 12 5 5 3 6 9 14 5 5 8 5 8 6 2 3 0 3 2 4 4 2 2 4 1 4 7 4 5 1 5 7 9 13 20 14 13 17 20 17
16 4 6 6 8 12 5 3 3 4 11 7 2 3 5 8 6 7 4 2 3 1 1 1 3 3 3 2 5 5 3 3 1 4 5 5 6 10 5 8 6 7 11 18 17
13 2 4 5 7 5 3 4 7 15 16 4 6 8 8 5 4 4 3 4 0 3 2 2 2 3 3 4 6 2 2 3 4 5 3 3 6 6 9 8 11 16 15 20 25
10 2 6 3 5 1 0 3 12 8 18 7 4 5 5 3 4 4 3 4 3 4 2 2 2 3 9 5 3 0 4 4 3 6 5 3 8 8 3 7 10 16 10 23 27
13 5 6 9 2 3 6 5 5 7 13 5 5 2 2 4 3 5 5 4 7 4 2 1 1 3 8 3 2 3 3 3 1 2 7 5 8 1 3 9 15 7 12 27 31
7 4 5 4 5 1 4 4 5 13 13 14 7 3 2 5 7 6 7 5 3 5 4 4 3 6 5 5 4 5 5 2 2 3 6 16 15 20 15 18 19 6 11 25 31
8 2 2 4 4 9 3 4 8 10 4 8 4 4 13 6 10 6 5 4 4 10 3 5 5 6 9 13 14 14 16 13 11 9 6 5 21 18 14 19 17 10 18 18 29
7 6 6 17 14 4 3 3 9 11 6 6 6 18 13 11 13 19 17 6 8 2 6 6 4 4 12 12 16 19 19 17 15 15 10 13 26 12 11 19 1 10 19 17 25
10 4 5 8 4 4 3 7 14 13 10 13 16 17 15 16 17 26 27 29 14 6 8 7 4 5 6 9 11 10 18 19 14 6 11 14 11 7 11 8 3 7 14 16 23

GFSSW_850_spd_024.txt.gz
Wind_Speed
15 14 14 15 15 16 17 17 16 16 16 16 17 19 21 23 25 25 28 25 21 21 17 21 9 8 12 12 11 7 2 5 6 7 5 2 4 9 6 9 8 9 12 16 15
16 16 16 17 18 18 18 18 19 19 19 20 20 21 22 24 27 27 16 21 22 26 26 21 23 18 8 10 11 6 5 10 7 7 4 5 5 16 8 13 3 19 26 28 14
17 17 17 18 19 19 20 19 19 20 21 22 23 23 24 23 23 2 2 3 7 8 14 24 18 15 19 12 14 9 10 8 8 13 8 6 12 12 14 6 14 22 32 26 16
18 18 19 20 20 21 22 21 21 22 21 22 23 24 24 19 5 2 15 13 18 21 16 18 23 8 8 12 15 6 16 19 11 8 5 6 8 11 22 18 29 33 36 38 37
17 18 19 19 20 20 18 18 18 19 21 22 23 23 21 12 16 15 9 17 19 19 12 9 23 16 6 5 9 13 6 16 23 17 16 17 21 17 30 27 32 34 38 40 40
16 17 18 19 18 17 15 13 15 20 22 24 24 18 9 7 17 26 27 23 20 20 11 6 7 20 8 7 16 1 9 16 14 17 12 10 21 15 23 25 29 33 39 40 39
21 21 22 23 22 20 17 15 16 21 21 18 20 20 16 27 22 21 17 16 17 20 23 15 14 17 4 4 14 10 5 3 7 6 8 15 22 31 30 27 30 36 41 43 42
23 23 23 23 21 19 14 15 18 21 19 19 27 20 14 18 24 13 25 26 25 27 20 20 12 12 16 10 4 5 5 12 14 10 8 11 31 16 20 26 35 38 30 32 36
24 24 23 24 22 21 18 19 20 27 21 19 18 9 13 21 24 27 23 23 27 25 17 15 14 11 7 5 4 4 14 6 4 9 7 18 33 2 16 19 22 27 35 39 42
24 23 22 22 19 19 17 20 21 10 12 14 6 6 10 23 28 25 19 9 14 26 12 10 10 4 3 7 16 6 3 2 4 7 15 15 28 11 24 27 25 31 37 40 41
23 21 20 19 15 16 18 21 22 6 23 9 18 18 27 26 28 20 16 7 7 7 3 5 4 13 14 9 3 4 3 3 3 1 4 14 19 14 13 21 20 30 33 39 41
22 21 20 15 13 9 13 8 10 11 13 13 14 18 20 18 16 18 14 6 6 4 4 5 14 5 1 7 9 7 0 3 5 8 4 4 11 14 13 17 26 28 29 32 38
22 22 18 12 9 6 11 7 13 18 4 12 13 13 17 21 14 10 8 6 1 2 5 6 7 6 5 3 4 4 4 3 6 7 13 10 18 14 15 19 27 30 35 40 39
24 21 16 10 5 12 4 14 19 7 3 6 6 5 20 21 5 5 7 4 1 6 4 5 7 4 4 6 9 7 4 2 2 1 5 3 13 19 18 20 17 22 31 37 38
23 18 12 7 10 11 13 17 11 3 4 13 5 11 32 7 18 5 13 4 7 13 3 7 2 4 5 6 6 7 9 9 8 7 4 5 5 17 5 8 11 16 30 35 44
25 18 7 3 9 13 18 18 3 5 4 7 10 16 12 10 16 8 9 4 8 6 6 11 5 3 5 5 9 5 5 4 2 3 4 8 9 24 7 13 15 9 25 31 32
21 11 4 5 9 14 19 3 4 4 4 7 9 16 14 6 8 5 11 5 2 3 4 4 14 10 6 5 4 5 5 2 1 2 8 10 11 23 7 9 6 8 16 17 17
15 6 4 6 9 15 16 4 5 2 5 6 10 15 4 8 6 6 9 3 4 3 2 3 2 5 3 8 7 6 7 4 6 5 5 6 11 7 12 14 15 15 21 25 25
13 4 5 8 10 14 9 5 5 4 4 7 12 3 4 6 3 6 3 3 3 4 3 3 4 4 2 2 5 3 4 7 2 3 1 5 6 7 15 13 11 10 19 28 27
14 3 4 6 10 12 5 2 3 5 6 6 3 4 5 10 6 5 4 3 3 1 3 4 4 2 3 3 9 4 3 2 1 4 5 5 5 6 9 4 8 10 12 26 16
12 1 5 5 8 5 3 4 5 9 9 3 6 8 9 7 4 4 6 7 2 2 0 1 1 5 4 4 6 3 3 2 3 5 3 3 5 6 8 4 6 14 29 23 13
8 2 7 5 4 2 0 4 7 9 6 5 4 5 5 3 5 4 6 3 1 1 5 2 1 3 7 6 4 3 3 5 4 6 4 4 6 7 3 8 12 15 21 9 15
11 4 4 9 2 3 5 5 5 4 7 3 4 4 1 3 5 5 5 7 4 4 4 1 1 3 4 2 3 0 4 4 2 2 6 4 7 4 8 16 21 18 15 2 9
8 4 4 5 3 3 5 5 4 8 8 4 5 5 3 7 8 6 6 6 3 6 9 2 2 5 4 2 1 3 7 8 3 5 5 11 12 23 16 14 20 29 11 6 11
7 2 2 4 3 5 4 5 9 6 3 4 4 4 8 7 13 14 11 7 9 7 1 4 6 5 8 8 9 10 14 13 15 10 7 3 8 16 10 15 16 22 4 8 13
6 5 4 8 14 4 4 4 7 6 5 11 7 15 14 13 14 21 18 14 11 4 5 6 4 2 8 10 11 13 15 17 18 18 15 12 21 13 14 16 16 15 9 11 13
9 3 3 6 5 2 4 4 9 16 10 11 15 17 15 16 18 29 33 32 18 7 7 5 4 3 4 4 5 9 15 18 16 13 12 13 12 11 8 13 10 11 14 17 20

GFSSW_850_spd_027.txt.gz
Wind_Speed
14 13 13 13 13 14 14 14 14 15 15 17 18 18 19 20 19 18 18 13 17 20 21 17 10 7 16 10 12 10 6 11 16 11 5 2 2 2 3 6 4 6 4 1 4
13 14 14 14 15 15 15 15 14 15 17 18 19 21 20 21 22 15 3 6 5 10 16 21 16 11 8 11 11 12 10 16 8 12 6 6 6 4 4 6 5 11 3 6 5
14 15 15 16 16 16 16 15 16 16 17 18 20 22 23 22 14 3 4 3 13 17 11 8 16 12 17 11 16 12 19 18 18 17 15 18 17 8 8 12 14 11 20 13 7
17 17 17 18 18 17 16 16 16 18 19 20 21 24 22 18 5 5 10 18 17 13 9 6 13 9 10 19 20 14 23 26 18 8 10 13 17 19 19 23 18 22 26 29 24
17 17 17 17 17 15 15 14 16 19 21 19 19 21 23 14 7 13 17 17 19 15 9 5 12 16 16 11 21 22 22 18 28 17 18 10 25 23 28 23 27 31 32 34 35
17 17 17 17 16 15 15 11 14 18 21 21 20 25 22 7 10 16 10 15 14 12 10 7 6 13 11 17 18 13 23 26 20 21 24 20 29 27 30 21 22 25 31 32 34
17 17 17 18 17 15 15 15 16 18 22 21 20 24 12 5 18 13 20 16 14 16 18 10 11 11 5 10 15 19 17 12 16 29 20 14 23 36 31 28 35 33 34 37 35
17 16 16 17 16 14 14 15 18 19 19 16 19 18 8 16 22 23 19 16 13 14 15 7 15 8 10 10 9 11 13 22 24 12 11 20 32 32 33 32 37 37 38 35 36
18 17 17 18 17 15 16 17 20 16 9 14 10 9 5 19 21 25 20 16 12 7 10 5 6 9 7 13 8 13 21 26 22 21 19 18 34 22 17 13 27 27 24 24 25
20 19 17 18 16 15 16 18 14 4 14 5 5 6 7 19 24 23 17 15 11 6 2 3 7 10 13 14 19 17 19 19 18 15 22 28 34 24 24 23 26 26 29 32 35
20 19 17 16 14 12 16 16 9 2 15 5 9 10 17 21 22 16 18 8 7 4 1 2 9 18 18 19 21 11 11 17 16 7 20 26 28 25 26 28 29 30 30 33 35
24 21 17 13 13 7 13 7 7 7 11 13 13 15 16 14 10 15 13 3 4 11 3 4 15 13 13 13 18 18 16 9 8 9 7 13 18 15 16 21 27 27 32 33 35
25 23 15 9 7 6 7 8 6 12 4 10 9 8 9 15 8 16 9 5 6 7 7 9 12 6 15 17 14 18 22 20 11 9 15 14 24 24 22 26 31 33 34 36 38
26 23 14 5 3 8 2 11 13 7 3 4 4 1 13 16 4 16 10 3 3 8 7 10 13 13 11 14 15 17 8 11 16 13 13 3 11 16 16 21 21 26 29 35 36
26 21 11 2 4 5 8 12 9 5 4 9 3 6 19 4 13 3 13 3 10 15 10 14 8 8 11 12 11 16 15 12 9 10 11 17 10 15 10 17 14 15 27 31 31
24 16 5 1 6 9 14 12 6 2 4 4 7 12 18 10 18 8 16 7 7 9 13 19 20 8 6 5 8 10 13 17 14 11 14 17 11 22 16 18 17 18 25 23 22
19 7 5 5 7 12 16 2 2 3 4 4 7 12 16 7 13 13 17 7 2 6 3 7 16 18 16 13 12 8 8 7 11 12 17 8 13 23 4 8 14 8 17 23 24
14 1 2 4 8 11 13 1 4 0 4 6 7 16 4 9 12 12 12 7 4 3 5 5 6 7 12 17 15 11 16 7 13 12 15 12 13 8 11 8 15 13 18 21 22
12 2 2 4 9 12 5 1 2 3 3 7 14 3 3 4 9 8 13 7 2 2 5 5 3 9 4 10 8 11 8 18 5 4 7 11 15 14 19 13 8 11 18 24 24
13 4 1 4 8 10 2 2 3 4 7 6 5 3 7 13 10 8 7 4 7 1 2 3 7 3 8 5 8 2 1 9 8 6 8 8 16 8 9 6 9 15 21 27 21
10 1 7 5 9 4 1 3 5 7 7 4 7 9 11 12 6 8 6 12 4 5 4 4 3 3 5 7 10 4 8 6 6 11 3 2 3 1 8 9 14 17 28 28 14
8 1 5 10 2 1 2 6 8 8 2 6 8 11 10 7 8 7 8 6 11 6 9 2 2 6 10 6 5 5 5 10 9 18 10 8 5 4 12 11 16 22 31 24 8
11 5 4 9 2 3 4 6 6 5 5 3 4 4 5 6 6 8 9 6 13 6 4 2 1 5 6 3 3 3 4 6 5 4 14 12 6 10 8 20 25 27 30 22 6
7 3 4 5 3 2 5 5 5 7 12 5 9 10 4 7 10 7 11 9 8 11 11 3 5 10 9 6 6 11 11 11 6 9 14 17 23 26 19 20 21 28 25 20 5
7 2 2 4 2 8 4 5 9 5 4 8 3 6 6 7 18 19 14 13 13 8 8 2 9 12 13 15 14 15 19 19 16 14 10 13 24 22 16 17 21 23 24 17 2
6 4 4 7 9 7 4 3 7 6 6 10 6 13 15 15 18 25 22 16 14 7 11 6 5 11 14 15 16 21 20 20 20 18 17 18 30 20 25 24 23 24 23 15 5
9 6 3 5 3 3 3 3 9 18 12 12 15 17 18 20 23 29 32 32 21 7 9 6 4 6 11 11 12 15 23 24 20 17 17 20 26 21 19 17 21 21 19 19 9

GFSSW_850_spd_030.txt.gz
Wind_Speed
13 12 12 12 12 12 12 12 12 12 13 14 13 14 14 15 14 12 8 10 8 11 16 16 12 9 12 20 20 16 12 16 22 19 15 8 15 13 11 8 10 5 3 8 5
13 13 12 13 13 12 11 11 11 12 14 14 15 16 16 17 15 3 3 6 4 7 5 9 15 14 19 21 17 18 16 26 20 14 11 18 16 12 10 19 16 10 5 4 4
13 13 13 13 13 12 11 11 11 14 16 17 17 17 19 16 2 2 4 11 13 11 7 6 10 18 23 21 29 26 26 22 25 21 19 20 20 16 14 17 21 17 14 4 5
13 12 12 13 12 12 12 11 12 14 16 17 18 20 22 7 1 2 12 17 19 13 6 4 8 20 21 26 26 25 30 33 29 20 20 21 26 27 26 24 22 14 15 17 16
12 12 12 12 12 12 12 11 13 15 17 17 18 20 14 3 4 10 8 13 10 7 7 7 11 15 24 20 29 28 30 29 29 28 22 23 28 27 31 29 27 28 24 26 25
13 12 12 12 12 10 10 9 12 16 15 17 15 16 7 4 10 10 10 13 8 7 6 9 10 12 18 25 24 22 32 36 34 24 28 25 31 26 38 31 31 26 29 29 28
14 13 12 12 13 11 10 10 13 16 17 11 12 10 1 6 13 13 13 11 9 6 8 9 12 13 6 15 25 30 26 24 25 35 28 23 30 36 38 33 30 32 33 32 32
15 13 12 12 13 11 10 11 14 16 9 11 7 5 2 11 16 15 12 13 10 8 8 9 8 17 20 19 17 16 22 24 33 24 29 26 29 37 37 37 35 37 39 38 37
18 16 15 15 14 13 11 14 15 10 6 7 7 3 2 11 15 11 13 13 13 12 9 7 8 17 17 17 16 20 24 31 30 28 24 22 37 37 41 31 36 32 37 36 35
21 20 18 16 14 13 13 16 11 5 11 5 5 2 3 12 17 15 11 14 11 8 9 8 10 12 14 16 23 27 26 27 28 23 27 30 35 30 29 22 35 36 31 30 26
22 22 19 16 13 11 13 10 6 3 7 6 4 6 10 15 12 10 10 10 6 8 12 9 11 14 18 22 28 24 28 24 21 22 24 28 33 31 31 36 34 32 32 34 36
23 22 19 13 10 8 11 5 4 5 9 11 11 12 11 8 14 10 8 7 12 11 9 10 16 15 16 19 23 25 27 28 19 16 21 25 30 28 27 25 35 35 36 37 38
25 24 18 9 4 7 3 4 5 9 7 4 4 8 6 12 11 9 8 12 11 13 11 16 17 13 12 16 20 23 26 25 25 15 21 20 24 25 21 26 30 34 35 38 38
25 23 15 3 2 5 2 7 10 5 5 6 3 2 7 13 9 15 5 9 9 11 12 14 13 16 16 19 18 24 23 22 25 23 20 20 19 23 24 28 30 36 37 40 39
25 19 13 3 1 3 5 9 8 2 5 3 2 3 10 6 10 4 8 10 14 16 13 20 19 13 17 18 19 18 21 19 20 22 24 30 17 19 19 22 23 21 32 34 36
24 13 4 3 3 4 11 7 4 6 2 2 2 8 9 7 11 6 11 12 14 13 15 19 17 16 17 13 11 15 13 19 19 15 18 23 18 19 18 24 18 18 24 27 27
22 5 2 3 3 9 11 1 5 5 2 1 7 10 15 8 11 9 13 11 6 8 10 15 13 16 22 20 15 13 16 12 17 18 18 20 17 19 9 9 1 10 11 11 15
20 3 2 2 6 9 6 6 5 4 5 8 8 17 9 10 9 13 11 12 2 10 13 8 10 8 7 23 19 22 19 16 18 16 20 25 15 15 12 17 8 8 10 12 13
16 3 3 3 6 10 9 5 3 4 5 9 15 8 8 5 11 9 11 9 5 6 8 11 7 11 12 11 18 23 14 24 24 21 16 19 24 25 10 10 5 1 8 14 15
12 3 3 5 7 6 5 4 3 4 8 8 9 6 13 16 13 8 9 4 6 6 4 9 14 10 4 12 10 22 1 7 15 16 18 15 23 12 21 23 4 7 13 19 16
7 4 2 4 6 4 3 5 8 6 9 6 10 16 14 12 12 10 6 12 5 7 13 14 9 10 13 6 15 4 7 13 14 17 9 13 15 20 14 11 6 11 18 19 13
8 3 4 9 7 2 4 8 10 7 5 8 9 11 11 13 11 15 13 8 14 13 14 16 6 12 14 6 11 9 17 4 5 16 13 10 4 11 18 10 11 15 21 21 12
12 5 6 6 3 6 8 9 8 8 5 4 8 8 14 16 8 8 12 12 12 14 6 5 7 9 11 7 10 11 15 14 21 4 17 11 5 14 9 8 15 19 23 23 12
6 3 0 3 4 6 10 5 5 4 12 7 10 14 12 13 13 10 18 13 16 16 18 11 14 15 14 17 9 8 10 13 11 10 14 16 16 13 10 11 14 20 22 22 12
3 2 3 4 5 9 9 7 9 7 4 11 7 10 11 10 18 23 20 15 18 22 19 5 11 16 18 21 18 18 17 16 17 18 18 19 21 20 17 15 16 22 22 19 11
5 5 5 18 9 9 1 5 9 6 12 14 13 14 15 18 21 26 26 21 9 7 17 6 6 14 19 19 20 21 20 19 20 20 18 23 27 22 22 24 24 23 18 17 14
5 5 3 8 7 6 5 8 14 17 11 10 12 15 20 23 26 33 36 35 21 9 7 8 5 10 15 15 14 16 20 21 22 21 21 22 25 21 20 19 20 21 20 16 14

GFSSW_850_spd_033.txt.gz
Wind_Speed
10 10 10 10 10 10 10 9 9 10 11 12 12 12 14 15 13 11 10 10 13 13 16 13 15 15 16 25 29 24 17 19 24 23 19 15 19 19 20 23 10 16 3 9 18
10 10 10 10 10 9 9 9 9 10 12 12 12 13 15 17 11 5 8 7 3 5 6 11 17 18 24 22 29 25 17 28 23 22 17 14 16 20 24 16 17 20 6 5 10
10 10 10 10 10 9 9 8 9 10 12 13 14 17 17 11 6 6 4 11 13 11 10 12 14 20 27 28 29 32 28 26 27 30 26 16 23 25 25 18 26 21 16 10 10
11 11 10 10 10 10 10 8 9 11 13 15 17 17 12 3 2 2 14 13 14 11 8 12 14 21 25 27 33 27 38 37 36 37 21 18 25 28 28 24 26 28 23 24 14
13 13 12 11 11 10 10 10 11 13 13 14 14 13 6 6 4 8 11 13 12 8 9 12 16 20 24 25 29 32 31 38 37 29 33 26 26 28 32 30 28 28 18 13 17
14 13 12 12 12 11 10 11 12 14 14 15 11 9 6 11 4 8 11 11 9 10 9 10 14 16 24 25 28 31 35 38 37 34 34 31 29 28 37 34 33 32 31 28 27
16 15 14 14 14 12 11 11 13 15 16 8 9 4 8 4 6 9 9 11 12 10 11 9 12 17 12 17 30 31 28 28 28 34 35 32 28 30 43 35 36 37 36 32 32
16 16 16 15 14 13 12 12 14 15 9 7 3 2 7 2 7 10 12 12 9 11 12 12 13 18 24 25 32 19 21 26 35 28 30 31 34 34 40 39 40 39 39 34 36
18 18 17 16 14 12 10 13 13 11 4 3 2 4 5 6 7 12 11 12 14 14 13 13 14 19 17 18 19 21 26 30 32 29 29 28 35 34 46 42 36 42 42 40 40
22 21 19 16 13 12 10 11 11 7 5 4 7 7 6 7 14 13 10 12 13 12 13 15 17 13 14 15 21 24 26 29 30 27 29 31 34 33 40 40 35 45 46 39 44
25 22 21 16 12 10 13 10 5 6 10 14 11 10 9 12 12 10 8 12 9 12 12 14 14 14 17 16 22 24 28 32 29 25 28 29 31 36 32 35 32 36 32 45 48
26 23 21 14 8 7 10 8 6 8 12 13 14 12 11 9 11 11 8 13 13 14 15 13 16 17 18 15 20 24 26 30 29 30 23 22 27 34 27 30 36 37 40 40 35
27 24 17 10 5 5 3 4 6 11 8 3 6 7 6 7 14 14 11 12 14 17 14 16 17 21 17 17 19 20 23 25 27 24 28 25 29 30 26 30 33 39 42 42 40
27 23 15 4 2 5 1 8 10 8 6 10 9 3 6 9 18 8 13 11 14 17 19 16 15 16 16 21 17 21 20 21 26 21 21 28 21 27 26 25 27 33 32 35 36
26 19 10 3 2 5 7 10 9 2 5 5 4 3 7 11 10 12 8 14 18 18 17 19 20 20 22 21 17 22 19 21 23 25 24 30 20 22 22 27 27 27 39 42 41
23 14 2 4 3 4 8 9 2 7 1 4 3 5 11 14 7 11 11 14 21 17 18 20 18 21 19 20 18 15 17 20 21 20 22 26 26 24 22 23 21 20 27 31 32
22 10 4 1 4 8 7 6 6 6 4 1 6 11 15 14 10 6 11 14 13 10 15 20 16 8 16 16 18 16 14 12 16 16 19 23 25 21 24 29 25 22 29 15 20
23 6 6 4 6 7 6 9 8 7 10 10 10 16 16 3 8 10 14 13 11 8 13 9 12 4 12 9 20 17 17 13 17 16 19 26 26 21 24 23 19 23 19 17 14
16 5 4 5 6 7 12 7 5 8 8 10 14 13 8 8 10 15 11 12 6 11 12 13 9 20 18 9 7 18 17 21 21 25 18 20 29 31 30 19 14 16 11 8 13
19 6 5 5 6 7 9 9 9 2 10 11 14 9 14 17 13 12 11 7 7 11 11 10 18 18 15 10 17 16 15 13 6 19 23 18 22 19 30 19 15 10 3 11 9
9 7 2 2 6 12 6 10 10 7 11 7 11 16 17 15 15 17 10 14 9 9 14 16 17 19 17 15 16 1 6 8 8 12 12 16 12 15 27 29 19 5 3 5 7
7 4 1 6 8 6 7 6 9 9 9 8 10 15 14 15 17 19 20 14 9 14 15 18 14 16 22 23 13 13 13 19 4 12 18 11 17 16 13 21 13 4 4 7 3
12 8 3 3 3 7 12 13 11 8 11 7 8 15 14 16 13 13 18 19 17 13 7 11 6 10 17 16 16 7 9 13 8 9 15 8 9 18 23 17 11 9 13 15 8
7 4 4 2 4 7 12 11 9 7 10 8 9 15 15 16 15 14 21 20 12 15 20 13 14 18 17 20 8 5 19 13 11 6 14 18 17 20 4 15 12 9 16 14 12
4 4 4 4 8 10 12 14 11 10 5 7 10 11 12 14 20 23 20 23 18 22 20 4 11 19 24 28 23 17 20 13 17 19 21 20 13 14 25 29 9 10 14 12 12
9 7 13 17 10 6 10 11 11 9 16 17 15 16 14 16 19 28 27 24 15 5 6 10 8 15 21 23 25 23 22 18 19 25 24 23 20 14 22 25 16 13 13 13 8
8 7 5 10 6 7 5 11 14 18 13 13 15 17 20 20 25 33 35 36 23 12 6 3 6 8 19 20 22 19 22 20 20 23 22 22 20 16 17 18 15 16 14 14 7

GFSSW_850_spd_036.txt.gz
Wind_Speed
11 11 11 11 11 11 10 9 8 8 10 12 11 12 14 18 16 10 15 11 12 16 16 15 13 15 17 21 25 26 15 18 24 22 20 23 19 18 21 19 25 19 6 14 20
12 11 10 10 10 9 9 9 9 9 11 12 12 14 17 19 17 9 10 11 16 18 15 9 14 17 23 19 23 20 18 29 24 19 20 22 21 25 20 23 23 15 4 2 12
15 13 13 12 12 12 11 11 10 11 12 13 14 15 17 14 10 6 5 10 12 10 9 13 14 17 23 26 28 27 27 26 30 32 28 23 26 21 17 19 27 23 16 10 19
15 14 13 13 13 13 12 12 12 13 15 16 16 13 11 7 3 5 11 9 8 9 7 10 14 20 20 22 29 26 35 35 35 38 34 26 30 28 25 28 33 25 22 22 17
17 16 15 14 13 13 14 14 14 13 14 15 15 14 10 7 2 7 13 13 13 8 10 12 15 18 21 21 26 30 29 38 38 36 35 36 32 32 24 31 33 30 25 25 27
18 18 16 15 15 15 14 14 14 14 16 17 11 10 7 14 4 5 9 9 10 10 11 11 13 17 24 23 22 29 34 34 38 35 31 29 30 31 33 29 32 34 30 19 19
20 19 19 17 16 15 14 14 14 16 16 11 9 8 10 12 5 7 9 11 11 10 11 11 12 12 15 17 29 27 27 25 28 32 29 32 26 32 36 32 30 33 36 32 26
21 21 21 20 17 16 14 12 13 14 11 7 6 5 8 3 4 6 11 12 9 12 13 12 12 16 18 19 28 22 20 21 29 27 31 24 30 28 40 33 33 35 34 36 33
21 21 20 19 16 14 12 11 11 11 5 5 3 4 12 5 3 12 11 11 13 13 12 12 11 15 17 14 15 17 21 24 25 25 27 26 31 27 37 34 29 33 34 37 35
26 24 21 18 14 11 10 11 13 9 3 6 9 9 10 5 10 13 10 10 14 12 13 12 16 13 13 13 17 18 21 23 27 26 25 26 29 28 34 31 33 35 36 37 36
27 26 22 18 12 8 8 8 6 2 7 16 15 16 13 7 11 8 8 11 14 10 14 14 11 14 17 17 20 19 22 27 28 27 24 24 25 28 27 32 29 29 29 39 42
27 27 22 16 9 4 6 9 8 10 13 16 16 14 12 10 10 12 8 13 14 13 16 13 15 16 16 18 20 20 20 25 25 26 23 27 28 27 22 24 29 30 34 33 37
26 26 19 13 5 3 5 5 10 12 9 10 5 6 7 6 13 14 7 13 13 15 15 16 18 19 18 20 18 18 21 21 24 22 24 25 26 28 27 22 24 30 31 37 36
25 25 17 6 3 7 2 10 11 10 5 7 8 3 5 6 8 3 13 8 13 17 18 15 19 20 20 22 21 21 21 21 21 19 17 20 18 22 21 23 21 28 31 25 24
24 22 10 2 6 9 10 11 11 4 4 5 7 4 5 9 15 7 4 10 13 16 16 18 19 19 22 22 21 23 21 20 22 20 22 23 15 19 22 22 22 22 29 28 29
25 21 5 3 8 5 11 12 6 5 2 4 2 6 10 13 19 7 13 13 21 18 18 19 23 19 19 21 20 28 20 22 18 17 17 24 19 21 19 23 24 18 28 35 39
26 18 7 5 5 10 10 9 5 6 5 2 6 11 13 19 7 9 8 13 12 12 14 18 15 10 6 11 19 27 16 12 15 14 17 22 21 19 21 24 24 22 23 30 26
25 10 5 7 5 9 9 9 6 6 8 14 11 16 18 14 6 8 13 13 12 10 13 14 17 9 13 19 10 26 9 9 19 16 17 20 15 17 19 22 33 33 35 25 21
20 7 5 3 3 7 10 5 4 10 12 11 14 15 12 10 11 12 14 13 8 7 12 15 20 8 16 20 14 19 11 20 12 19 14 19 27 21 22 23 25 25 32 18 21
20 5 5 7 3 5 7 9 14 8 11 12 14 10 15 17 16 15 15 10 13 15 15 15 19 19 22 21 18 15 9 12 5 12 17 17 22 12 20 19 24 24 19 26 9
10 5 2 1 5 7 5 12 12 16 12 6 13 16 15 15 16 18 15 20 10 18 16 19 15 20 19 18 16 12 3 3 11 6 5 8 12 12 17 22 21 22 20 9 15
7 2 1 4 7 4 7 11 11 9 9 13 8 10 10 16 16 18 19 16 16 12 13 14 8 17 22 25 25 17 14 11 6 10 9 12 21 15 23 28 29 23 9 9 12
11 9 2 6 2 6 12 16 13 7 9 8 8 12 12 15 13 9 18 21 14 10 9 8 6 12 15 18 7 8 6 5 10 13 14 10 11 17 26 31 45 38 15 14 19
8 3 2 6 8 10 12 13 13 9 8 5 8 11 13 16 13 16 21 20 7 7 10 9 11 18 17 21 3 9 15 24 17 7 18 13 15 10 17 18 27 36 32 16 11
6 5 6 5 10 13 10 14 13 15 12 4 11 16 14 16 19 19 16 24 23 8 7 3 8 17 25 26 24 25 19 23 26 22 19 14 17 5 5 13 27 46 42 19 8
9 9 13 20 12 12 5 10 12 13 14 15 16 16 17 18 18 24 22 20 20 15 8 6 5 12 22 23 22 24 26 29 30 30 18 17 15 9 16 24 31 32 23 16 10
8 7 5 11 10 10 9 10 12 16 11 15 18 19 18 19 30 30 32 32 22 5 3 2 3 3 12 17 14 16 24 26 26 21 19 15 11 9 8 17 20 13 15 13 16